TimeEST,TemperatureF,Dew PointF,Humidity,Sea Level PressureIn,VisibilityMPH,Wind Direction,Wind SpeedMPH,Gust SpeedMPH,PrecipitationIn,Events,Conditions,WindDirDegrees,DateUTC
12:15 AM,39.2,28.4,65,30.24,10.0,NNE,3.5,-,N/A,,Clear,20,2012-12-06 05:15:00
12:35 AM,39.2,28.4,65,30.23,10.0,North,5.8,-,N/A,,Clear,350,2012-12-06 05:35:00
12:55 AM,39.2,30.2,70,30.23,10.0,NNW,3.5,-,N/A,,Clear,330,2012-12-06 05:55:00
1:15 AM,39.2,30.2,70,30.23,10.0,Calm,Calm,-,N/A,,Clear,0,2012-12-06 06:15:00
1:35 AM,37.4,28.4,70,30.23,10.0,Calm,Calm,-,N/A,,Clear,0,2012-12-06 06:35:00
1:55 AM,39.2,30.2,70,30.23,10.0,NE,3.5,-,N/A,,Clear,50,2012-12-06 06:55:00
2:15 AM,37.4,30.2,75,30.24,10.0,Calm,Calm,-,N/A,,Clear,0,2012-12-06 07:15:00
2:35 AM,39.2,30.2,70,30.24,10.0,Calm,Calm,-,N/A,,Clear,0,2012-12-06 07:35:00
2:55 AM,37.4,30.2,75,30.24,10.0,Calm,Calm,-,N/A,,Clear,0,2012-12-06 07:55:00
3:15 AM,37.4,32.0,81,30.23,10.0,Calm,Calm,-,N/A,,Clear,0,2012-12-06 08:15:00
3:35 AM,39.2,32.0,75,30.23,10.0,Calm,Calm,-,N/A,,Clear,0,2012-12-06 08:35:00
3:55 AM,33.8,30.2,87,30.23,10.0,Calm,Calm,-,N/A,,Clear,0,2012-12-06 08:55:00
4:15 AM,35.6,30.2,81,30.23,10.0,SSW,3.5,-,N/A,,Clear,210,2012-12-06 09:15:00
4:35 AM,33.8,28.4,81,30.24,10.0,SSW,4.6,-,N/A,,Clear,210,2012-12-06 09:35:00
4:55 AM,33.8,28.4,81,30.23,10.0,SSW,3.5,-,N/A,,Clear,210,2012-12-06 09:55:00
5:15 AM,33.8,28.4,81,30.24,10.0,SSW,5.8,-,N/A,,Clear,200,2012-12-06 10:15:00
5:35 AM,33.8,28.4,81,30.24,10.0,South,4.6,-,N/A,,Clear,190,2012-12-06 10:35:00
5:55 AM,32.0,28.4,87,30.24,10.0,SW,4.6,-,N/A,,Clear,220,2012-12-06 10:55:00
6:15 AM,32.0,28.4,87,30.25,10.0,SW,4.6,-,N/A,,Clear,220,2012-12-06 11:15:00
6:35 AM,33.8,28.4,81,30.25,10.0,SSW,4.6,-,N/A,,Clear,200,2012-12-06 11:35:00
6:55 AM,32.0,28.4,87,30.26,10.0,Calm,Calm,-,N/A,,Clear,0,2012-12-06 11:55:00
7:15 AM,30.2,28.4,93,30.27,10.0,Calm,Calm,-,N/A,,Clear,0,2012-12-06 12:15:00
7:35 AM,30.2,28.4,93,30.27,10.0,Calm,Calm,-,N/A,,Clear,0,2012-12-06 12:35:00
7:55 AM,30.2,26.6,86,30.27,10.0,SW,3.5,-,N/A,,Clear,220,2012-12-06 12:55:00
8:15 AM,33.8,28.4,81,30.27,10.0,WSW,3.5,-,N/A,,Clear,240,2012-12-06 13:15:00
8:35 AM,33.8,28.4,81,30.29,10.0,Calm,Calm,-,N/A,,Scattered Clouds,0,2012-12-06 13:35:00
8:55 AM,35.6,30.2,81,30.28,10.0,Calm,Calm,-,N/A,,Scattered Clouds,0,2012-12-06 13:55:00
9:15 AM,35.6,30.2,81,30.28,10.0,Calm,Calm,-,N/A,,Scattered Clouds,0,2012-12-06 14:15:00
9:35 AM,37.4,30.2,75,30.28,10.0,Calm,Calm,-,N/A,,Mostly Cloudy,0,2012-12-06 14:35:00
9:55 AM,39.2,33.8,81,30.28,10.0,SSW,3.5,-,N/A,,Overcast,210,2012-12-06 14:55:00
10:15 AM,39.2,33.8,81,30.28,10.0,SSW,3.5,-,N/A,,Overcast,210,2012-12-06 15:15:00
10:35 AM,39.2,33.8,81,30.28,10.0,SSW,4.6,-,N/A,,Overcast,200,2012-12-06 15:35:00
10:55 AM,41.0,35.6,81,30.28,10.0,SSW,6.9,-,N/A,,Overcast,210,2012-12-06 15:55:00
11:15 AM,41.0,35.6,81,30.27,10.0,SSW,8.1,-,N/A,,Overcast,200,2012-12-06 16:15:00
11:35 AM,42.8,35.6,76,30.26,10.0,South,5.8,-,N/A,,Overcast,190,2012-12-06 16:35:00
11:55 AM,41.0,35.6,81,30.25,10.0,South,8.1,-,N/A,,Overcast,190,2012-12-06 16:55:00
12:15 PM,41.0,37.4,87,30.24,10.0,SSE,6.9,-,N/A,,Overcast,160,2012-12-06 17:15:00
12:35 PM,42.8,37.4,81,30.23,10.0,SSE,4.6,-,N/A,,Mostly Cloudy,150,2012-12-06 17:35:00
12:55 PM,42.8,37.4,81,30.22,10.0,SSE,5.8,-,N/A,,Mostly Cloudy,150,2012-12-06 17:55:00
1:15 PM,44.6,37.4,76,30.22,10.0,South,4.6,-,N/A,,Mostly Cloudy,180,2012-12-06 18:15:00
1:35 PM,44.6,37.4,76,30.21,10.0,SE,3.5,-,N/A,,Mostly Cloudy,140,2012-12-06 18:35:00
1:55 PM,44.6,39.2,81,30.20,10.0,SSE,5.8,-,N/A,,Overcast,160,2012-12-06 18:55:00
2:15 PM,44.6,37.4,76,30.20,10.0,SSE,6.9,-,N/A,,Mostly Cloudy,160,2012-12-06 19:15:00
2:35 PM,44.6,37.4,76,30.19,10.0,SSE,4.6,-,N/A,,Overcast,160,2012-12-06 19:35:00
2:55 PM,44.6,37.4,76,30.19,10.0,South,3.5,-,N/A,,Overcast,170,2012-12-06 19:55:00
3:15 PM,44.6,37.4,76,30.19,10.0,SSE,4.6,-,N/A,,Overcast,160,2012-12-06 20:15:00
3:35 PM,44.6,37.4,76,30.20,10.0,SSE,3.5,-,N/A,,Overcast,160,2012-12-06 20:35:00
3:55 PM,44.6,37.4,76,30.20,10.0,SSE,5.8,-,N/A,,Mostly Cloudy,160,2012-12-06 20:55:00
4:15 PM,44.6,35.6,71,30.20,10.0,SSE,6.9,-,N/A,,Overcast,160,2012-12-06 21:15:00
4:35 PM,42.8,37.4,81,30.19,10.0,South,4.6,-,N/A,,Light Drizzle,170,2012-12-06 21:35:00
4:55 PM,42.8,37.4,81,30.20,10.0,SSE,4.6,-,N/A,,Overcast,160,2012-12-06 21:55:00
5:15 PM,42.8,37.4,81,30.20,10.0,South,3.5,-,N/A,,Overcast,170,2012-12-06 22:15:00
5:35 PM,42.8,35.6,76,30.20,10.0,SSE,5.8,-,N/A,,Overcast,150,2012-12-06 22:35:00
5:55 PM,41.0,37.4,87,30.20,10.0,SSE,4.6,-,N/A,,Light Drizzle,160,2012-12-06 22:55:00
6:15 PM,41.0,35.6,81,30.21,10.0,SE,3.5,-,N/A,,Overcast,140,2012-12-06 23:15:00
6:35 PM,39.2,37.4,93,30.21,7.0,SSE,3.5,-,N/A,Rain,Light Rain,160,2012-12-06 23:35:00
6:55 PM,39.2,37.4,93,30.20,10.0,SSE,3.5,-,N/A,,Overcast,150,2012-12-06 23:55:00
7:15 PM,39.2,37.4,93,30.21,10.0,SSE,3.5,-,N/A,,Overcast,150,2012-12-07 00:15:00
7:35 PM,41.0,37.4,87,30.20,10.0,SSE,4.6,-,N/A,,Overcast,160,2012-12-07 00:35:00
7:55 PM,41.0,35.6,81,30.20,10.0,SSE,3.5,-,N/A,,Light Drizzle,150,2012-12-07 00:55:00
8:15 PM,39.2,37.4,93,30.20,10.0,SSE,4.6,-,N/A,,Overcast,160,2012-12-07 01:15:00
8:35 PM,39.2,37.4,93,30.21,10.0,SSE,3.5,-,N/A,,Overcast,160,2012-12-07 01:35:00
8:55 PM,39.2,37.4,93,30.20,10.0,SSE,4.6,-,N/A,,Overcast,160,2012-12-07 01:55:00
9:35 PM,39.2,35.6,87,30.20,10.0,South,6.9,-,N/A,,Mostly Cloudy,170,2012-12-07 02:35:00
9:55 PM,39.2,37.4,93,30.20,10.0,SSE,5.8,-,N/A,,Mostly Cloudy,160,2012-12-07 02:55:00
10:15 PM,39.2,37.4,93,30.20,10.0,SSE,4.6,-,N/A,,Overcast,160,2012-12-07 03:15:00
10:35 PM,41.0,37.4,87,30.19,10.0,SSE,6.9,-,N/A,,Overcast,160,2012-12-07 03:35:00
10:55 PM,41.0,37.4,87,30.19,10.0,South,6.9,-,N/A,,Overcast,170,2012-12-07 03:55:00
11:15 PM,41.0,37.4,87,30.19,10.0,South,5.8,-,N/A,,Mostly Cloudy,180,2012-12-07 04:15:00
11:35 PM,42.8,37.4,81,30.18,10.0,South,6.9,-,N/A,,Mostly Cloudy,170,2012-12-07 04:35:00
11:55 PM,42.8,37.4,81,30.18,10.0,South,6.9,-,N/A,,Mostly Cloudy,170,2012-12-07 04:55:00